Rock Hill, SC

2:06 PM EST on February 27, 2017 (GMT -0500)
Rock Hill-York County-Bryant

Weather History for KUZA - October, 2012

Change the Weather History Date:

Wednesday, October 31, 2012

  Actual Average Record
Temperature  
Mean Temperature 50 °F -  
Max Temperature 62 °F 68 °F 88 °F (2013)
Min Temperature 37 °F 47 °F 30 °F (2008)
Degree Days  
Heating Degree Days 14    
Moisture  
Dew Point 34 °F    
Average Humidity 60    
Maximum Humidity 86    
Minimum Humidity 31    
Precipitation  
Precipitation 0.00 in - - ()
Sea Level Pressure  
Sea Level Pressure 29.73 in    
Wind  
Wind Speed 7 mph (WSW)    
Max Wind Speed 16 mph    
Max Gust Speed 24 mph    
Visibility 10 miles    
Events      
Averages and records for this station are not official NWS values.
T = Trace of Precipitation, MM = Missing Value Source: NWS Daily Summary

Daily Weather History Graph

Daily Weather History Graph

Search for Another Location

Airport or City:

Trip Planner

Search our weather history database for the weather conditions in past years. The results will help you decide how hot, cold, wet, or windy it might be!

Date:

Astronomy

Oct. 31, 2012 Rise Set
Actual Time 7:44 AM EDT 6:30 PM EDT
Civil Twilight 7:18 AM EDT 6:56 PM EDT
Nautical Twilight 6:48 AM EDT 7:26 PM EDT
Astronomical Twilight 6:19 AM EDT 7:55 PM EDT
Moon 7:45 PM EDT (10/31) 9:20 AM EDT (10/31)
Length of Visible Light 11h 38m
Length of Day
10h 45m
Full, 97% of the Moon is Illuminated
Oct 31
Full
Nov 6
Last Quarter
Nov 13
New
Nov 20
First Quarter
Nov 28
Full

Hourly Weather History & Observations

Time (EDT) Temp. Windchill Dew Point Humidity Pressure Visibility Wind Dir Wind Speed Gust Speed Precip Events Conditions
12:54 AM 45.0 °F 41.8 °F 33.1 °F 63% 29.68 in 10.0 mi WSW 5.8 mph - N/A   Partly Cloudy
1:54 AM 43.0 °F 38.8 °F 33.1 °F 68% 29.68 in 10.0 mi WSW 6.9 mph - N/A   Scattered Clouds
2:54 AM 42.1 °F 38.4 °F 33.1 °F 70% 29.68 in 10.0 mi SW 5.8 mph - N/A   Scattered Clouds
3:54 AM 44.1 °F 40.1 °F 34.0 °F 68% 29.69 in 10.0 mi WSW 6.9 mph - N/A   Scattered Clouds
4:54 AM 43.0 °F 38.8 °F 34.0 °F 71% 29.70 in 10.0 mi WSW 6.9 mph - N/A   Partly Cloudy
5:54 AM 43.0 °F 39.5 °F 34.0 °F 71% 29.71 in 10.0 mi SW 5.8 mph - N/A   Partly Cloudy
6:54 AM 42.1 °F 38.4 °F 33.1 °F 70% 29.71 in 10.0 mi SW 5.8 mph - N/A   Partly Cloudy
7:54 AM 43.0 °F 38.8 °F 33.1 °F 68% 29.73 in 10.0 mi SW 6.9 mph - N/A   Overcast
8:54 AM 44.1 °F 41.5 °F 34.0 °F 68% 29.74 in 10.0 mi WSW 4.6 mph - N/A   Mostly Cloudy
9:54 AM 48.0 °F - 35.1 °F 61% 29.74 in 10.0 mi Variable 4.6 mph - N/A   Scattered Clouds
10:54 AM 50.0 °F - 34.0 °F 54% 29.75 in 10.0 mi West 9.2 mph - N/A   Overcast
11:54 AM 54.0 °F - 35.1 °F 49% 29.75 in 10.0 mi WNW 12.7 mph - N/A   Partly Cloudy
12:54 PM 57.0 °F - 36.0 °F 45% 29.74 in 10.0 mi West 11.5 mph - N/A   Partly Cloudy
1:54 PM 59.0 °F - 34.0 °F 39% 29.72 in 10.0 mi WNW 12.7 mph 24.2 mph N/A   Clear
2:54 PM 61.0 °F - 34.0 °F 36% 29.70 in 10.0 mi NW 16.1 mph 24.2 mph N/A   Clear
3:54 PM 62.1 °F - 30.9 °F 31% 29.70 in 10.0 mi WNW 11.5 mph 18.4 mph N/A   Unknown
4:54 PM 62.1 °F - 32.0 °F 32% 29.70 in 10.0 mi West 11.5 mph 16.1 mph N/A   Clear
5:54 PM 60.1 °F - 30.0 °F 32% 29.72 in 10.0 mi West 9.2 mph - N/A   Clear
6:54 PM 50.0 °F - 34.0 °F 54% 29.74 in 10.0 mi Calm Calm - N/A   Clear
7:54 PM 45.0 °F - 34.0 °F 65% 29.77 in 10.0 mi Calm Calm - N/A   Clear
8:54 PM 42.1 °F - 35.1 °F 76% 29.79 in 10.0 mi Calm Calm - N/A   Clear
9:54 PM 39.9 °F 37.8 °F 34.0 °F 79% 29.80 in 10.0 mi Variable 3.5 mph - N/A   Clear
10:54 PM 39.0 °F 36.8 °F 34.0 °F 82% 29.81 in 10.0 mi WSW 3.5 mph - N/A   Clear
11:54 PM 37.0 °F 34.5 °F 33.1 °F 86% 29.82 in 10.0 mi SSW 3.5 mph - N/A   Clear